Location: Home
(42.5358°N, 72.7383°W)
Time: 06:51:01
(UTC-05:00)

S-56A Canister/Altair - Pass Details

Date: 08 December 2021
Orbit: 633 x 2499 km, 38.9° (Epoch: 19 January)

Event Time Altitude Azimuth Distance (km) Brightness Sun altitude
Exits shadow 04:17:11 11° 172° (S) 2,103 9.9 -30.6°
Drops below altitude 10° 04:17:27 10° 170° (S) 2,165 10.0 -30.6°
Sets 04:20:08 0° 152° (SSE) 2,979 11.0 -30.1°
